Date,TemperatureHighF,TemperatureAvgF,TemperatureLowF,DewpointHighF,DewpointAvgF,DewpointLowF,HumidityHigh,HumidityAvg,HumidityLow,PressureMaxIn,PressureMinIn,WindSpeedMaxMPH,WindSpeedAvgMPH,GustSpeedMaxMPH,PrecipitationSumIn
2013-1-1,40.1,31.9,26.7,32.2,28.9,25.7,98,89,69,30.46,30.35,8,0,8,0.01
2013-1-2,41.9,31.2,23.5,31.8,27.0,22.2,97,85,64,30.35,30.20,8,0,8,0.00
2013-1-3,39.7,31.6,22.9,35.3,28.0,21.4,95,87,69,30.28,30.16,5,0,5,0.01
2013-1-4,52.2,43.3,36.5,46.5,40.9,34.9,100,91,79,30.34,30.18,8,0,8,0.00
2013-1-5,38.4,36.5,34.7,37.0,34.8,32.0,97,94,89,30.23,30.17,7,0,8,0.05
2013-1-6,47.2,42.0,37.2,43.9,40.2,36.4,98,94,84,30.26,30.11,14,1,14,0.09
2013-1-7,52.3,47.8,43.8,50.5,46.3,42.3,97,94,90,30.24,30.05,19,4,19,0.14
2013-1-8,55.1,50.5,46.2,50.4,48.0,45.2,97,91,83,30.24,29.93,21,4,22,0.01
2013-1-9,49.8,42.5,35.8,47.0,40.4,34.8,97,92,83,30.01,29.73,22,2,22,0.45
2013-1-10,40.3,37.0,34.9,38.7,36.0,34.1,97,96,92,30.14,30.01,8,1,8,0.11
2013-1-11,38.4,32.0,27.3,34.8,30.7,26.1,98,95,79,30.33,30.13,6,0,7,0.00
2013-1-12,35.9,28.1,22.4,32.5,26.8,21.2,97,95,84,30.43,30.32,6,0,6,0.01
2013-1-13,28.8,27.5,26.6,27.8,25.9,24.4,100,94,88,30.52,30.42,5,0,5,0.00
2013-1-14,34.6,30.8,26.8,32.3,29.0,25.6,96,93,88,30.59,30.52,7,1,7,0.00
2013-1-15,37.9,35.1,32.6,36.5,33.8,31.3,100,95,93,30.67,30.57,8,1,8,0.00
2013-1-16,35.1,33.6,32.6,34.1,32.8,31.9,98,97,95,30.66,30.51,6,0,6,0.00
2013-1-17,36.2,32.7,31.4,34.9,32.1,30.9,98,98,93,30.51,30.34,4,0,4,0.01
2013-1-18,32.9,30.8,29.1,32.4,30.3,28.6,100,98,98,30.35,30.30,4,0,4,0.00
2013-1-19,30.8,28.7,26.7,30.3,28.1,25.9,100,98,97,30.37,30.31,4,0,4,0.00
2013-1-20,30.4,28.0,24.9,29.8,27.4,24.0,98,98,96,30.39,30.27,5,0,5,0.01
2013-1-21,29.3,27.4,25.6,28.8,26.8,24.9,98,97,97,30.31,30.18,5,0,5,0.00
2013-1-22,33.9,28.5,24.3,33.4,27.9,23.3,99,98,96,30.19,29.97,4,0,4,0.00
2013-1-23,34.9,33.0,31.0,34.7,32.7,30.5,100,99,98,30.22,29.92,4,0,4,0.29
2013-1-24,45.2,36.4,32.6,44.8,36.1,32.3,100,99,99,30.24,30.13,6,0,6,0.27
2013-1-25,51.0,46.2,38.8,50.2,45.7,38.0,99,98,96,30.16,29.98,8,1,8,0.35
2013-1-26,45.4,40.9,37.0,43.1,39.7,36.1,98,95,86,30.12,29.97,10,2,11,0.34
2013-1-27,42.8,40.0,38.4,40.8,39.0,37.8,98,96,91,30.19,30.08,11,2,13,0.24
2013-1-28,43.2,41.2,38.6,42.3,40.5,37.8,98,97,96,30.26,30.12,10,2,12,0.59
2013-1-29,45.8,44.0,42.5,45.0,43.2,41.5,98,97,95,30.51,30.26,9,3,10,0.28
2013-1-30,47.8,44.8,42.4,46.8,44.1,41.6,99,97,95,30.52,30.47,12,3,14,0.18
2013-1-31,54.7,47.1,43.3,47.9,45.1,43.0,99,93,71,30.47,30.34,6,0,6,0.02
2013-2-1,54.6,44.9,36.0,48.7,42.6,35.0,98,92,76,30.36,30.25,11,1,11,0.00
2013-2-2,42.8,37.4,33.0,42.0,36.8,32.2,99,98,96,30.34,30.27,8,0,8,0.01
2013-2-3,47.9,42.8,35.3,44.8,41.5,34.8,99,95,88,30.35,30.24,6,0,6,0.01
2013-2-4,51.4,44.5,38.7,45.3,42.1,37.9,99,92,76,30.25,29.95,7,0,7,0.00
2013-2-5,50.1,46.0,43.9,46.2,43.4,41.5,97,91,82,30.09,29.95,15,3,16,0.49
2013-2-6,52.1,46.4,41.8,44.2,42.2,39.0,94,85,70,30.13,29.86,14,3,15,0.06
2013-2-7,47.2,40.7,33.6,41.7,38.2,32.8,97,91,71,30.15,29.96,16,1,16,0.20
2013-2-8,44.9,37.2,32.5,37.9,35.2,32.0,98,93,75,30.29,30.15,9,0,9,0.00
2013-2-9,43.9,39.9,35.0,41.1,38.4,34.0,98,94,85,30.32,30.28,7,1,7,0.07
2013-2-10,45.2,42.5,40.9,41.9,40.4,38.1,100,92,81,30.35,30.31,6,0,6,0.01
2013-2-11,45.6,42.9,40.2,42.9,40.1,37.9,96,90,79,30.42,30.32,8,1,8,0.02
2013-2-12,52.4,47.4,44.0,48.7,45.6,42.9,98,93,84,30.50,30.42,9,1,10,0.03
2013-2-13,51.2,48.2,45.6,47.7,45.7,42.5,95,91,86,30.52,30.44,12,2,12,0.00
2013-2-14,57.5,46.5,37.7,47.0,42.7,36.9,98,87,65,30.57,30.47,7,1,7,0.00
2013-2-15,59.1,44.9,38.2,48.8,42.1,37.4,100,91,66,30.48,30.22,8,1,8,0.00
2013-2-16,48.4,42.2,37.5,47.0,41.2,36.9,99,96,90,30.31,30.24,8,1,8,0.06
2013-2-17,46.7,40.3,34.9,39.4,36.0,32.2,98,85,58,30.31,30.10,6,0,6,0.01
2013-2-18,46.2,39.7,32.7,39.2,35.9,31.1,96,87,68,30.10,29.75,11,2,12,0.06
2013-2-19,53.2,42.3,36.3,42.7,38.6,35.4,97,87,61,30.01,29.68,9,0,10,0.04
2013-2-20,47.4,40.8,35.3,41.3,38.4,33.8,97,91,74,30.13,30.01,13,2,14,0.11
2013-2-21,43.8,41.2,37.4,41.2,39.4,36.2,97,93,87,30.24,30.13,13,3,14,0.07
2013-2-22,45.5,42.9,38.5,43.2,40.7,36.2,95,92,84,30.22,29.94,22,5,22,0.45
2013-2-23,46.2,39.7,34.1,40.8,37.5,33.1,97,92,78,30.47,30.12,9,2,10,0.10
2013-2-24,50.4,41.4,34.3,41.0,37.0,33.3,97,85,63,30.47,30.10,14,2,14,0.01
2013-2-25,49.5,42.6,34.9,42.3,39.1,33.2,95,88,65,30.42,30.07,16,3,18,0.15
2013-2-26,50.8,41.4,33.7,40.1,36.1,32.7,97,83,57,30.42,30.26,10,1,10,0.00
2013-2-27,51.8,45.7,39.7,45.7,41.5,37.0,94,86,73,30.33,30.23,13,1,13,0.02
2013-2-28,56.1,52.0,46.5,52.9,49.9,44.9,96,93,86,30.46,30.22,17,3,17,0.07
2013-3-1,61.3,54.2,49.1,52.6,50.3,47.6,96,87,69,30.47,30.32,13,2,13,0.01
2013-3-2,53.3,49.4,43.6,49.8,46.8,40.0,94,91,86,30.33,30.19,8,1,8,0.01
2013-3-3,50.3,41.6,33.9,40.2,34.9,31.0,96,79,51,30.33,30.23,14,1,14,0.00
2013-3-4,56.1,41.0,30.8,41.5,34.2,29.6,96,79,45,30.23,29.92,7,1,7,0.01
2013-3-5,49.7,42.5,35.8,44.7,40.3,33.3,97,92,79,29.92,29.62,10,1,11,0.19
2013-3-6,45.7,42.4,40.2,43.7,40.8,39.2,100,94,85,29.98,29.55,14,2,14,0.48
2013-3-7,56.2,44.2,32.7,42.5,38.0,31.6,98,81,52,30.06,29.98,11,1,11,0.00
2013-3-8,56.2,42.6,31.9,43.9,37.8,30.9,98,84,59,30.22,30.03,11,0,11,0.00
2013-3-9,60.9,43.1,30.3,43.2,36.2,28.9,97,80,40,30.51,30.22,8,1,8,0.01
2013-3-10,52.6,45.2,36.2,47.1,41.0,33.8,94,86,68,30.51,30.41,8,1,8,0.00
2013-3-11,57.3,50.4,46.0,51.3,47.8,44.4,96,91,78,30.43,30.25,0,0,0,0.02
2013-3-12,58.7,50.6,43.7,51.7,47.8,42.6,98,91,75,30.25,30.16,10,1,10,0.00
2013-3-13,65.2,54.2,46.5,52.6,48.4,44.8,96,82,53,30.24,30.09,9,0,9,0.00
2013-3-14,56.7,52.8,48.0,50.3,47.9,44.3,96,84,64,30.23,30.06,12,2,12,0.00
2013-3-15,64.1,55.5,50.7,51.3,49.3,46.4,94,81,55,30.24,30.16,8,1,9,0.00
2013-3-16,50.7,46.8,40.8,47.4,44.6,39.2,96,92,83,30.20,30.03,14,2,15,0.31
2013-3-17,49.2,41.6,36.8,41.1,37.8,35.2,95,87,64,30.34,30.20,11,1,11,0.01
2013-3-18,54.0,42.7,32.9,39.0,35.9,31.9,97,79,51,30.31,30.13,9,1,9,0.01
2013-3-19,49.9,43.2,37.3,48.7,40.3,34.6,98,90,75,30.13,29.68,6,0,7,0.49
2013-3-20,52.9,48.1,40.5,50.7,44.7,36.7,98,88,75,30.21,29.58,24,4,24,0.45
2013-3-21,48.4,41.5,37.8,40.4,37.3,35.2,94,85,68,30.34,30.21,12,2,12,0.08
2013-3-22,45.7,39.5,33.4,39.0,35.2,32.4,97,85,62,30.41,30.33,7,1,8,0.08
2013-3-23,49.6,40.6,33.9,38.5,34.2,29.3,100,80,49,30.40,30.27,8,1,10,0.00
2013-3-24,54.2,43.3,33.3,42.5,37.0,31.2,94,80,57,30.27,30.08,7,1,7,0.00
2013-3-25,57.1,46.8,37.3,45.5,39.8,35.1,93,78,54,30.09,29.92,6,0,6,0.00
2013-3-26,53.7,48.1,42.5,48.2,45.2,40.1,96,90,76,30.03,29.97,5,0,5,0.05
2013-3-27,62.2,50.1,38.9,50.6,45.6,37.9,98,86,59,30.00,29.90,13,1,14,0.03
2013-3-28,66.0,54.5,46.8,53.8,49.2,45.7,98,84,53,30.15,30.00,8,1,8,0.06
2013-3-29,67.8,56.2,47.9,53.8,50.7,46.8,97,83,59,30.20,30.12,7,0,7,0.00
2013-3-30,73.4,57.2,43.3,55.5,49.7,42.0,97,78,50,30.17,29.94,10,1,11,0.00
2013-3-31,72.1,58.3,46.2,56.1,51.0,44.6,97,78,52,30.02,29.91,12,1,12,0.00
2013-4-1,61.0,56.2,53.5,53.7,51.8,49.8,93,85,75,30.18,30.01,12,2,13,0.00
2013-4-2,67.0,55.8,49.6,52.6,49.6,46.7,95,81,53,30.22,30.12,10,2,10,0.00
2013-4-3,63.8,52.3,42.1,55.3,48.9,40.7,98,89,72,30.17,29.90,6,0,7,0.00
2013-4-4,60.6,56.1,53.4,57.4,53.1,49.1,96,90,77,29.91,29.70,17,3,18,0.14
2013-4-5,57.5,53.6,51.5,52.2,50.3,49.0,94,89,77,29.98,29.84,18,5,19,0.27
2013-4-6,56.0,50.8,47.4,50.0,48.0,44.8,96,90,71,30.02,29.71,19,4,21,1.23
2013-4-7,52.7,47.8,42.2,49.0,44.0,40.0,93,87,79,29.99,29.63,24,5,29,0.17
2013-4-8,52.4,45.9,40.6,46.4,42.1,39.0,96,87,74,30.30,29.99,9,1,9,0.03
2013-4-9,57.6,47.3,35.4,49.3,42.4,34.3,98,84,61,30.37,30.25,6,0,6,0.00
2013-4-10,60.9,51.3,44.6,53.3,46.7,40.5,98,84,60,30.35,30.18,18,2,18,0.03
2013-4-11,58.1,47.5,39.3,44.1,40.9,37.7,99,80,52,30.36,30.17,9,0,9,0.00
2013-4-12,53.6,45.3,35.6,47.8,41.5,34.0,97,87,72,30.17,29.90,13,2,13,0.10
2013-4-13,52.2,44.4,40.1,41.7,39.2,35.6,95,82,59,30.13,29.97,13,2,13,0.10
2013-4-14,49.7,43.9,41.2,43.6,40.9,39.3,97,90,74,30.06,29.95,10,2,10,0.42
2013-4-15,55.6,46.0,38.4,43.2,39.8,34.4,98,81,46,30.18,29.96,12,1,12,0.02
2013-4-16,58.9,47.0,37.3,46.7,41.3,36.1,98,82,49,30.40,30.18,10,1,11,0.09
2013-4-17,58.1,47.3,37.4,46.5,41.0,35.6,96,80,51,30.51,30.40,10,1,10,0.00
2013-4-18,61.6,52.1,44.3,50.5,44.8,41.4,92,77,57,30.49,30.33,9,1,9,0.01
2013-4-19,58.4,51.8,48.8,53.2,49.2,46.8,96,91,78,30.33,30.20,17,3,17,0.41
2013-4-20,61.4,52.0,44.2,47.7,45.8,41.4,95,80,56,30.36,30.26,9,1,9,0.00
2013-4-21,56.4,49.8,44.1,49.3,45.1,41.5,94,84,74,30.32,30.24,12,1,12,0.00
2013-4-22,66.1,52.3,41.2,46.0,39.3,31.4,94,66,33,30.40,30.30,20,3,20,0.00
2013-4-23,68.5,52.4,34.8,42.3,35.9,30.7,91,57,25,30.36,30.13,14,2,16,0.00
2013-4-24,73.8,57.2,40.6,44.1,38.6,33.9,83,54,27,30.23,29.99,14,2,15,0.00
2013-4-25,75.9,58.5,40.6,55.1,43.2,34.2,91,61,29,30.14,30.01,9,0,9,0.00
2013-4-26,78.0,60.3,43.5,55.8,47.7,38.2,95,67,24,30.24,30.14,8,1,8,0.00
2013-4-27,72.0,58.0,44.0,48.5,43.7,35.1,95,63,27,30.27,30.19,11,1,11,0.00
2013-4-28,65.5,56.7,50.7,50.3,47.7,45.3,90,73,52,30.29,30.12,13,3,13,0.02
2013-4-29,59.9,52.7,41.5,49.5,42.1,33.1,95,69,41,30.24,30.10,12,2,12,0.15
2013-4-30,57.0,45.4,33.2,40.7,36.3,31.3,96,72,45,30.44,30.24,7,1,7,0.00
2013-5-1,68.8,52.2,37.7,45.4,38.6,33.2,86,63,36,30.51,30.41,14,2,17,0.00
2013-5-2,77.5,60.9,41.8,47.1,40.7,36.1,83,51,24,30.42,30.21,11,2,12,0.00
2013-5-3,78.9,62.8,46.7,50.5,43.7,37.7,76,51,31,30.28,30.09,13,2,14,0.00
2013-5-4,83.3,67.8,53.0,51.6,41.9,32.8,77,43,18,30.10,29.85,17,2,17,0.00
2013-5-5,86.7,70.2,54.5,54.7,42.4,36.8,70,39,19,29.86,29.64,13,2,13,0.00
2013-5-6,80.6,63.4,50.8,56.4,50.4,46.3,87,65,34,29.91,29.75,15,2,15,0.00
2013-5-7,74.0,59.7,49.6,57.0,50.5,46.8,92,73,46,30.05,29.91,11,2,13,0.03
2013-5-8,67.8,55.9,46.1,56.3,50.3,44.2,96,82,62,30.15,30.05,9,1,9,0.00
2013-5-9,78.0,61.4,46.5,59.3,52.7,44.9,96,76,44,30.19,30.06,10,1,10,0.00
2013-5-10,79.5,64.9,49.5,64.1,55.2,47.2,94,73,45,30.20,30.09,7,1,7,0.02
2013-5-11,82.3,66.8,55.2,65.1,56.4,47.3,88,71,31,30.20,29.99,6,1,7,0.01
2013-5-12,71.5,63.6,58.8,60.8,57.5,54.8,91,81,62,30.13,30.06,9,1,10,0.02
2013-5-13,67.1,58.4,49.9,56.3,53.1,45.7,96,83,55,30.23,30.06,16,3,20,0.10
2013-5-14,67.7,56.1,46.9,48.8,44.5,38.3,92,68,35,30.23,30.09,8,1,10,0.00
2013-5-15,59.1,52.4,47.4,53.7,48.0,42.8,92,85,74,30.12,30.02,10,1,11,0.14
2013-5-16,59.1,54.8,50.9,54.5,52.6,49.4,96,92,77,30.02,29.95,11,1,11,0.43
2013-5-17,61.7,54.7,48.5,51.9,49.3,45.8,97,83,58,30.12,30.01,18,1,18,0.01
2013-5-18,58.2,54.0,50.7,53.6,50.5,47.6,94,88,78,30.29,30.11,9,2,9,0.09
2013-5-19,66.3,56.8,50.8,52.9,50.6,46.8,97,81,54,30.41,30.29,10,1,10,0.10
2013-5-20,72.5,56.4,45.3,54.4,47.4,38.7,94,74,40,30.34,29.92,8,1,8,0.00
2013-5-21,53.9,47.9,42.8,49.4,45.5,40.3,96,91,66,30.03,29.85,12,2,13,0.62
2013-5-22,49.4,45.2,41.1,47.7,43.4,39.2,98,93,90,30.03,29.97,17,5,17,0.34
2013-5-23,57.0,49.5,45.7,49.0,46.2,43.8,96,89,66,30.05,30.01,18,4,18,0.56
2013-5-24,58.6,51.9,47.8,50.4,47.7,46.0,97,86,67,30.10,30.00,17,3,17,0.08
2013-5-25,66.7,56.1,47.4,54.4,48.4,43.7,95,77,45,30.09,29.93,12,2,12,0.11
2013-5-26,61.7,56.4,51.9,54.4,51.7,47.8,96,85,70,30.05,29.96,16,3,16,0.21
2013-5-27,62.7,55.3,51.0,59.4,53.1,47.9,96,92,85,30.00,29.75,16,3,16,1.38
2013-5-28,63.4,56.4,51.8,52.7,50.4,46.8,96,82,57,29.95,29.77,14,3,14,0.18
2013-5-29,62.7,55.4,50.6,52.8,50.7,46.8,97,85,65,30.09,29.65,19,4,20,0.30
2013-5-30,62.7,54.6,49.2,51.1,47.9,46.1,93,79,60,30.27,30.08,13,2,13,0.02
2013-5-31,68.6,57.9,45.9,52.0,48.4,44.3,95,72,49,30.32,30.22,11,1,11,0.00
2013-6-1,75.5,60.4,45.7,61.0,51.6,44.1,96,75,44,30.24,30.01,9,1,10,0.00
2013-6-2,71.2,61.7,53.5,56.1,53.0,49.7,88,74,54,30.08,30.02,13,1,13,0.00
2013-6-3,74.8,60.6,48.4,58.4,52.2,46.8,95,76,48,30.10,30.01,13,2,15,0.00
2013-6-4,81.2,65.2,51.6,63.7,54.6,47.6,88,70,44,30.07,29.95,11,2,12,0.00
2013-6-5,83.0,69.3,54.4,63.4,56.8,52.1,95,67,37,30.07,29.94,10,1,10,0.00
2013-6-6,81.8,69.0,57.8,62.9,58.0,50.5,92,70,45,30.04,29.96,11,1,12,0.00
2013-6-7,82.0,66.3,52.3,61.9,52.0,41.4,89,63,29,30.12,30.03,8,1,9,0.00
2013-6-8,78.2,64.3,52.0,58.0,50.8,42.3,90,65,31,30.15,30.02,11,2,11,0.00
2013-6-9,73.6,61.8,51.1,54.1,50.4,47.0,87,68,43,30.09,29.95,15,2,15,0.00
2013-6-10,70.7,58.1,47.0,52.7,46.8,43.2,87,68,44,30.01,29.88,12,2,12,0.00
2013-6-11,63.6,56.8,52.4,52.1,47.5,44.9,84,72,54,30.16,29.99,11,1,12,0.00
2013-6-12,62.9,56.4,51.3,52.0,48.5,44.5,89,76,56,30.20,30.14,8,1,9,0.00
2013-6-13,60.6,53.8,49.7,55.0,51.1,47.1,96,91,78,30.31,30.19,13,2,13,0.58
2013-6-14,69.6,57.4,43.5,55.5,50.3,42.5,98,79,55,30.31,29.97,12,2,12,0.01
2013-6-15,76.9,62.5,48.6,59.2,53.2,46.9,96,74,38,30.02,29.90,9,1,9,0.00
2013-6-16,73.6,61.1,50.5,59.4,53.6,48.7,96,78,51,30.12,30.02,7,1,7,0.00
2013-6-17,75.0,61.6,50.7,56.6,52.4,47.6,94,74,45,30.12,29.94,17,2,17,0.00
2013-6-18,67.0,59.7,53.9,57.2,51.6,46.6,89,75,52,30.02,29.94,17,2,17,0.09
2013-6-19,64.1,56.7,50.4,54.3,51.2,47.9,94,82,64,30.12,29.97,16,3,16,0.02
2013-6-20,64.3,57.4,51.0,57.3,52.3,48.7,94,84,67,30.14,30.07,12,2,13,0.10
2013-6-21,70.5,61.1,53.3,55.0,52.1,49.0,94,74,48,30.17,30.10,7,1,7,0.00
2013-6-22,79.3,64.7,49.2,57.6,51.3,40.6,96,66,28,30.10,29.85,11,1,11,0.00
2013-6-23,70.7,63.7,58.5,62.9,58.6,49.8,96,84,55,29.86,29.64,12,1,12,0.16
2013-6-24,64.1,59.9,56.1,60.1,55.4,52.3,94,85,71,29.73,29.66,13,2,13,0.02
2013-6-25,66.1,60.9,57.7,61.4,57.7,55.2,97,89,73,29.87,29.68,12,1,13,0.29
2013-6-26,70.8,63.8,58.7,61.8,58.7,57.1,97,84,64,30.03,29.85,10,1,10,0.09
2013-6-27,81.0,69.7,59.7,65.4,61.4,57.6,94,76,54,30.14,30.00,13,1,13,0.00
2013-6-28,90.1,73.1,58.9,70.5,62.6,57.2,97,73,39,30.13,30.00,8,1,9,0.00
2013-6-29,86.9,72.6,60.8,68.3,61.6,56.9,91,70,41,30.10,29.94,8,1,8,0.00
2013-6-30,91.6,75.3,59.8,72.0,64.0,57.5,96,71,39,29.96,29.82,7,0,7,0.00
2013-7-1,89.8,75.5,63.6,74.1,65.7,60.4,92,73,51,29.99,29.89,7,1,7,0.00
2013-7-2,89.7,75.7,64.1,70.8,63.9,58.3,89,68,47,30.05,29.97,9,1,9,0.00
2013-7-3,85.2,70.3,60.2,59.9,54.4,42.8,81,60,24,30.11,30.00,12,2,12,0.00
2013-7-4,77.2,64.8,53.3,57.5,52.9,49.4,88,67,45,30.13,30.00,14,2,14,0.00
2013-7-5,74.3,64.1,56.3,57.5,53.0,49.8,83,68,50,30.06,29.92,10,1,10,0.00
2013-7-6,76.0,61.5,52.2,61.9,54.7,49.7,93,79,56,29.97,29.84,11,1,12,0.00
2013-7-7,79.5,65.8,52.8,64.0,57.2,50.8,95,75,53,29.97,29.85,13,1,13,0.00
2013-7-8,82.5,66.5,53.2,62.7,56.1,50.9,93,72,41,30.07,29.97,11,1,12,0.00
2013-7-9,88.5,72.4,56.0,65.3,59.8,53.7,94,68,37,30.06,29.94,10,1,10,0.00
2013-7-10,82.8,69.5,58.3,60.8,55.7,49.7,83,63,41,30.04,29.89,12,2,12,0.00
2013-7-11,76.3,62.1,51.9,54.5,49.4,45.8,82,65,36,30.07,29.93,13,2,13,0.00
2013-7-12,75.8,62.7,50.6,53.4,49.7,45.9,89,65,37,30.09,29.98,9,1,9,0.00
2013-7-13,80.7,64.3,51.1,53.5,48.6,42.1,86,60,28,30.14,30.00,15,2,15,0.00
2013-7-14,86.7,70.6,55.3,58.4,51.9,41.2,84,55,28,30.07,29.92,12,2,12,0.00
2013-7-15,85.3,70.6,55.5,57.3,50.7,41.0,74,51,33,29.99,29.77,13,2,15,0.00
2013-7-16,79.3,68.8,58.0,61.4,55.3,48.0,86,64,45,30.01,29.75,11,1,13,0.00
2013-7-17,80.3,66.1,59.6,59.9,55.6,53.5,86,70,44,30.15,30.01,10,2,10,0.00
2013-7-18,83.0,67.2,53.7,62.0,55.4,48.6,94,70,31,30.19,30.04,13,1,13,0.00
2013-7-19,83.7,67.4,54.4,65.0,57.8,51.5,92,73,48,30.12,29.97,13,2,13,0.00
2013-7-20,80.0,66.1,54.1,63.6,57.5,51.6,93,75,51,30.06,29.91,12,2,13,0.00
2013-7-21,84.0,67.8,53.3,63.5,57.0,50.5,94,71,42,29.98,29.86,12,2,12,0.00
2013-7-22,84.3,68.9,56.3,60.2,56.0,48.9,95,67,31,30.03,29.90,14,2,14,0.00
2013-7-23,90.0,72.3,55.0,67.3,59.5,51.5,92,67,35,30.01,29.90,12,1,12,0.00
2013-7-24,90.7,74.1,57.1,64.0,57.3,49.8,92,60,25,30.01,29.92,7,1,14,0.00
2013-7-25,90.4,74.4,57.3,60.8,54.6,43.6,93,55,22,30.05,29.96,13,1,14,0.00
2013-7-26,90.7,72.9,57.1,60.2,53.0,40.3,83,53,24,30.13,30.01,14,2,14,0.00
2013-7-27,81.7,66.5,54.5,57.0,50.2,45.8,79,58,31,30.16,29.97,12,1,12,0.00
2013-7-28,77.3,62.6,48.1,56.1,51.6,45.9,94,70,43,30.06,29.93,9,1,10,0.00
2013-7-29,78.1,64.3,51.8,58.5,53.7,49.1,91,70,43,30.03,29.92,9,1,10,0.00
2013-7-30,81.1,65.6,51.4,62.3,56.1,49.2,95,74,44,30.13,30.03,9,1,9,0.00
2013-7-31,78.3,64.5,55.8,62.7,57.5,53.2,94,79,52,30.10,30.00,7,1,7,0.00
2013-8-1,64.5,61.0,56.9,57.7,55.9,54.6,95,84,75,30.12,30.06,9,1,9,0.00
2013-8-2,74.6,63.6,57.6,58.9,54.9,52.8,91,74,52,30.15,30.07,10,1,10,0.00
2013-8-3,81.3,67.0,52.8,61.5,56.9,50.9,96,73,46,30.09,29.95,9,1,12,0.00
2013-8-4,89.3,71.9,56.5,64.2,59.6,53.9,94,68,36,30.00,29.86,8,1,8,0.00
2013-8-5,90.0,72.8,57.0,65.1,59.5,54.9,94,67,33,29.99,29.87,7,1,9,0.00
2013-8-6,89.2,69.1,56.7,59.1,54.4,42.4,92,64,23,29.97,29.90,9,0,9,0.00
2013-8-7,79.3,67.2,57.7,58.6,55.0,50.7,83,66,45,30.03,29.92,10,1,10,0.00
2013-8-8,82.0,66.8,55.6,64.6,57.6,52.9,92,74,47,30.05,29.87,11,2,11,0.00
2013-8-9,83.2,70.9,63.5,64.8,59.8,55.9,87,69,45,29.93,29.80,9,1,9,0.01
2013-8-10,76.7,66.3,59.7,66.7,60.2,56.8,94,82,52,30.04,29.89,11,2,11,0.06
2013-8-11,75.2,64.0,58.0,62.3,58.2,55.7,94,82,60,30.07,29.97,8,1,8,0.00
2013-8-12,75.0,63.6,57.6,62.7,57.9,53.3,95,82,60,30.07,30.00,7,0,8,0.00
2013-8-13,84.2,67.0,49.7,61.4,55.3,47.8,95,70,34,30.10,29.91,8,1,8,0.00
2013-8-14,83.2,69.3,57.4,62.0,56.6,47.5,93,68,29,29.96,29.90,12,1,12,0.00
2013-8-15,77.7,70.2,62.7,68.7,63.1,57.9,91,79,62,29.96,29.92,7,0,7,0.00
2013-8-16,84.0,71.0,63.3,68.4,63.8,55.2,93,79,54,30.04,29.95,8,0,8,0.01
2013-8-17,83.5,67.6,53.7,63.6,58.0,51.5,96,74,44,30.08,29.99,8,1,8,0.00
2013-8-18,83.7,68.6,54.5,63.3,58.6,52.8,96,73,40,30.12,30.00,8,1,9,0.00
2013-8-19,84.9,70.7,58.0,61.6,57.8,51.3,93,66,38,30.10,29.99,13,1,13,0.00
2013-8-20,82.9,68.2,54.1,58.5,52.7,46.4,87,61,30,30.11,29.95,16,2,16,0.00
2013-8-21,88.3,70.8,56.0,64.2,55.6,50.4,83,61,35,29.98,29.82,10,1,11,0.00
2013-8-22,80.9,70.2,59.4,66.6,60.2,55.8,91,72,47,29.90,29.82,10,1,11,0.05
2013-8-23,74.4,63.8,57.6,61.8,58.2,55.8,95,83,58,29.95,29.86,10,1,10,0.07
2013-8-24,76.0,64.9,56.1,60.3,57.0,54.0,95,77,51,29.91,29.83,6,0,6,0.00
2013-8-25,68.5,61.6,54.7,61.9,57.6,52.4,94,87,75,29.93,29.88,8,1,8,0.13
2013-8-26,77.8,65.8,59.1,60.8,57.2,50.2,95,76,39,29.96,29.89,21,2,21,0.01
2013-8-27,83.8,69.0,58.2,64.3,58.6,54.4,90,71,40,29.95,29.77,10,0,10,0.00
2013-8-28,78.5,66.8,60.6,63.7,61.1,59.1,96,83,58,29.89,29.83,0,0,0,0.03
2013-8-29,75.0,67.8,63.5,66.7,63.6,61.3,96,87,69,30.07,29.83,14,2,14,0.22
2013-8-30,82.1,69.7,62.5,64.4,61.5,58.3,96,77,47,30.14,30.01,7,0,7,0.00
2013-8-31,88.0,70.4,58.4,66.7,60.1,56.2,94,73,40,30.01,29.80,8,1,8,0.00
2013-9-1,83.5,68.2,56.8,60.7,56.2,51.6,92,68,37,29.90,29.78,11,2,11,0.00
2013-9-2,79.5,68.6,60.2,62.7,58.1,53.9,87,70,46,29.92,29.86,11,1,11,0.00
2013-9-3,80.0,68.3,60.3,59.6,57.4,53.3,94,71,43,29.99,29.92,10,1,10,0.01
2013-9-4,73.2,66.1,58.5,61.6,58.3,55.9,92,77,58,30.04,29.98,8,1,8,0.07
2013-9-5,68.3,61.2,57.9,62.2,59.2,56.8,97,93,77,30.06,29.97,14,1,14,3.08
2013-9-6,72.2,62.9,57.0,61.8,59.0,55.4,97,88,62,30.15,30.06,13,3,14,0.70
2013-9-7,77.4,63.3,53.7,64.5,58.2,52.7,98,85,56,30.09,29.94,9,1,9,0.01
2013-9-8,82.7,68.3,55.9,66.0,60.5,54.7,98,79,46,30.05,29.96,11,1,13,0.00
2013-9-9,81.8,75.0,66.4,65.6,63.7,61.8,86,69,53,30.01,29.88,13,2,13,0.00
2013-9-10,87.5,71.3,61.9,70.0,64.3,60.2,95,80,51,29.90,29.73,11,1,11,0.00
2013-9-11,92.2,72.3,59.1,68.3,62.4,57.1,97,74,39,29.94,29.78,8,1,9,0.00
2013-9-12,81.2,65.7,57.7,68.5,61.1,55.8,95,86,59,30.00,29.88,7,1,8,0.00
2013-9-13,75.0,64.6,57.9,66.0,60.9,56.8,97,88,71,29.96,29.81,8,1,8,0.00
2013-9-14,75.9,65.0,59.5,66.3,61.5,58.2,97,89,68,29.83,29.70,7,1,7,0.00
2013-9-15,65.9,61.6,59.2,61.3,59.4,57.6,97,93,83,29.91,29.72,9,2,10,0.05
2013-9-16,71.1,63.0,58.7,59.9,57.5,55.5,92,83,60,29.98,29.89,12,2,12,0.00
2013-9-17,67.6,61.0,57.0,58.3,54.7,50.2,95,81,56,30.03,29.85,9,1,9,0.01
2013-9-18,72.3,60.0,51.5,56.0,53.1,48.2,97,80,44,30.10,29.99,7,1,8,0.01
2013-9-19,78.4,59.2,45.2,60.2,51.5,43.6,97,78,42,29.99,29.78,8,0,8,0.01
2013-9-20,71.0,58.8,49.8,58.8,54.1,47.7,96,85,62,29.78,29.67,15,2,15,0.04
2013-9-21,65.0,59.8,55.4,57.2,55.7,52.3,97,87,65,29.81,29.68,12,2,13,0.01
2013-9-22,59.1,57.1,54.9,56.9,54.5,52.6,96,91,81,29.89,29.70,18,4,21,0.28
2013-9-23,61.6,56.9,53.6,57.0,54.9,51.9,96,93,81,30.00,29.89,15,2,15,0.50
2013-9-24,59.2,54.1,50.1,54.7,52.2,48.8,98,93,78,29.99,29.88,11,1,11,0.53
2013-9-25,58.0,52.1,49.1,53.5,50.0,48.0,97,93,75,30.05,29.88,8,1,9,0.11
2013-9-26,65.4,54.4,47.2,54.4,49.8,46.1,98,86,54,30.18,30.05,6,0,7,0.00
2013-9-27,57.6,51.8,46.5,54.4,49.9,45.0,98,93,78,30.19,29.95,11,3,16,0.24
2013-9-28,65.4,58.8,52.6,58.9,55.8,51.0,96,90,75,29.95,29.52,25,6,26,1.22
2013-9-29,57.5,54.2,52.8,56.4,52.3,50.1,96,93,88,29.72,29.44,21,6,22,1.27
2013-9-30,56.8,53.4,51.0,53.5,50.2,48.2,94,89,83,30.03,29.66,13,3,14,0.41
2013-10-1,58.4,51.5,46.2,52.5,49.0,44.8,97,91,70,30.21,30.00,11,2,11,0.32
2013-10-2,54.2,47.7,43.2,49.8,45.7,41.8,96,93,81,30.20,30.09,11,1,11,0.08
2013-10-3,58.7,48.3,42.4,49.9,45.3,41.0,100,90,61,30.42,30.19,10,1,10,0.01
2013-10-4,59.8,46.6,36.6,52.4,44.1,35.8,98,92,72,30.46,30.33,8,1,9,0.00
2013-10-5,67.8,50.7,37.7,54.2,46.5,36.9,100,87,52,30.34,30.15,6,0,6,0.01
2013-10-6,74.0,55.0,40.1,55.9,46.9,39.0,98,78,40,30.15,29.97,10,1,10,0.01
2013-10-7,60.2,54.2,50.0,53.1,50.3,47.5,96,87,68,30.17,30.00,12,2,12,0.08
2013-10-8,53.1,50.2,44.8,51.8,48.6,43.5,96,94,89,30.17,29.99,10,2,10,0.18
2013-10-9,57.8,47.5,41.2,49.4,44.6,40.2,98,90,69,30.10,29.98,10,1,11,0.01
2013-10-10,60.7,51.3,43.4,51.0,46.9,42.1,100,86,58,30.10,29.96,9,1,9,0.00
2013-10-11,57.7,51.1,43.2,48.1,45.5,41.6,96,82,59,30.15,30.09,5,0,5,0.00
2013-10-12,56.3,49.1,42.5,49.6,45.9,40.9,96,89,73,30.17,30.08,6,0,7,0.04
2013-10-13,59.1,47.9,39.9,50.1,44.7,38.8,97,89,69,30.30,30.16,9,1,9,0.00
2013-10-14,65.4,50.9,40.7,51.4,45.5,39.4,97,83,57,30.36,30.25,10,1,10,0.00
2013-10-15,67.4,50.9,38.3,48.0,43.0,36.8,96,77,41,30.30,30.12,9,1,9,0.00
2013-10-16,65.6,49.6,37.8,50.9,44.0,36.5,98,83,53,30.16,30.10,7,0,7,0.00
2013-10-17,62.2,47.6,38.1,53.2,44.9,37.1,98,91,69,30.23,30.13,8,0,8,0.01
2013-10-18,68.7,50.0,36.6,53.4,44.8,35.6,98,84,52,30.18,30.07,9,0,9,0.00
2013-10-19,68.9,50.4,37.1,54.4,45.9,36.1,98,86,57,30.16,30.09,1,0,1,0.01
2013-10-20,63.4,49.5,41.1,51.3,46.0,39.8,98,89,62,30.15,30.05,1,0,2,0.00
2013-10-21,65.5,49.1,39.7,55.2,46.2,38.7,98,91,63,30.09,29.97,1,0,1,0.01
2013-10-22,71.6,51.9,39.5,56.6,47.6,38.5,98,87,55,30.06,29.95,0,0,0,0.00
2013-10-23,70.0,51.5,41.1,58.2,48.4,40.0,100,90,60,30.01,29.93,6,0,6,0.01
2013-10-24,61.3,49.4,43.7,54.7,47.8,42.6,98,94,77,30.09,29.98,6,0,6,0.01
2013-10-25,51.3,49.0,43.4,50.2,48.2,42.3,98,97,95,30.27,30.09,7,0,7,0.01
2013-10-26,51.7,50.0,48.5,49.3,48.4,47.1,96,94,89,30.28,30.22,8,0,8,0.00
2013-10-27,54.2,49.4,45.4,52.5,47.0,43.2,96,91,83,30.11,29.82,13,2,13,0.14
2013-10-28,58.6,48.0,39.0,46.4,40.3,33.3,97,77,46,29.91,29.79,13,1,14,0.01
2013-10-29,60.2,42.4,29.9,42.2,35.4,28.4,96,79,42,30.08,29.91,6,0,6,0.00
2013-10-30,59.9,45.8,35.0,46.9,39.5,33.0,96,81,45,30.19,30.07,9,1,9,0.01
2013-10-31,54.4,51.5,44.6,53.1,48.8,43.4,97,91,83,30.27,30.17,8,1,8,0.05
2013-11-1,57.0,49.2,42.1,51.7,47.5,41.1,98,94,81,30.28,29.92,6,0,6,0.01
2013-11-2,54.9,50.1,44.4,51.3,46.6,41.3,97,88,69,30.10,29.79,19,4,20,0.58
2013-11-3,48.6,44.1,41.8,44.8,42.2,40.5,96,93,86,30.19,30.09,10,2,11,0.05
2013-11-5,52.9,52.5,51.4,52.0,51.5,50.6,97,96,95,30.25,30.17,8,2,9,0.17
2013-11-6,55.8,53.1,51.5,55.2,52.5,50.7,98,98,97,30.28,30.09,3,0,3,0.20
2013-11-7,55.4,51.2,47.0,54.8,48.9,44.9,99,92,78,30.16,29.92,14,3,14,0.39
2013-11-8,51.4,47.7,41.9,48.6,45.8,40.8,97,93,86,30.22,30.11,9,1,9,0.06
2013-11-9,47.5,43.8,38.8,45.8,42.7,38.3,98,96,91,30.12,30.04,4,0,4,0.01
2013-11-10,57.6,46.1,42.1,52.0,44.7,41.2,98,95,80,30.10,30.04,4,0,5,0.00
2013-11-11,50.2,45.8,43.4,49.9,45.2,42.9,99,98,96,30.15,30.02,5,0,5,0.01
2013-11-12,57.0,50.7,45.0,55.8,50.0,44.5,99,97,93,30.43,30.09,9,1,9,0.36
2013-11-13,51.4,49.3,47.0,50.5,48.4,46.2,98,97,93,30.48,30.30,8,1,8,0.01
2013-11-14,50.5,47.4,45.5,46.9,46.0,45.0,98,95,87,30.30,30.11,7,1,8,0.01
2013-11-15,47.7,45.3,42.5,45.3,43.8,41.7,98,95,89,30.12,29.63,21,3,21,0.08
2013-11-16,50.2,47.2,44.9,45.9,44.0,42.1,97,89,77,29.89,29.59,21,3,21,0.06
2013-11-17,53.6,49.4,45.9,47.1,45.1,42.6,96,85,76,30.03,29.89,17,4,17,0.03
2013-11-18,52.6,50.1,48.1,49.9,46.8,44.1,96,89,78,30.00,29.76,14,3,14,0.39
2013-11-19,54.1,48.5,38.4,52.6,46.7,33.0,97,93,80,30.02,29.73,16,3,16,0.39
2013-11-20,45.9,37.2,30.6,38.5,32.2,23.9,94,82,65,30.37,30.02,9,3,18,0.00
2013-11-21,46.9,35.0,27.4,26.8,22.2,18.9,81,61,35,30.56,30.36,14,2,17,0.00
2013-11-22,48.7,35.0,24.4,30.4,24.2,20.4,92,67,44,30.56,30.37,12,1,12,0.00
2013-11-23,51.9,38.5,29.8,30.9,26.0,21.7,86,62,41,30.38,30.16,10,1,11,0.00
2013-11-24,51.3,35.6,25.9,37.3,30.0,24.1,95,82,52,30.29,30.16,5,0,5,0.00
2013-11-25,51.4,35.5,26.8,39.7,31.7,25.3,97,87,59,30.36,30.29,5,0,5,0.00
2013-11-26,50.4,36.9,28.5,41.0,33.6,27.2,97,88,65,30.30,30.07,5,0,5,0.01
2013-11-27,50.4,37.5,30.5,39.1,33.9,29.5,97,88,60,30.07,29.96,5,0,5,0.00
2013-11-28,52.4,36.7,27.9,40.3,32.7,26.7,97,87,60,30.21,30.02,5,0,5,0.00
2013-11-29,45.5,36.9,27.6,41.6,34.9,26.4,97,93,85,30.38,30.21,5,0,5,0.01
2013-11-30,50.2,44.5,39.3,46.3,42.2,38.3,96,92,82,30.41,30.26,7,1,8,0.01
2013-12-1,54.4,52.3,48.1,53.1,50.8,46.1,97,95,91,30.26,29.97,23,7,26,1.05
2013-12-2,51.5,43.0,35.7,50.7,40.6,34.3,100,91,72,30.07,29.95,15,1,17,0.46
2013-12-3,44.0,34.8,27.8,37.9,30.8,21.2,98,86,60,30.27,30.06,10,1,10,0.01
2013-12-4,37.7,28.6,22.2,25.3,21.2,18.0,92,75,45,30.34,30.26,8,1,8,0.00
2013-12-5,33.8,24.3,17.0,22.9,19.5,14.8,93,82,63,30.31,30.17,5,0,5,0.00
2013-12-6,28.1,26.0,24.2,26.4,23.0,18.4,99,88,72,30.17,29.94,9,1,9,0.00
2013-12-7,29.9,21.7,12.5,18.3,12.3,8.7,87,68,44,30.44,30.06,11,2,13,0.08
2013-12-8,28.2,19.7,11.9,17.5,14.2,9.5,91,80,57,30.63,30.52,5,1,5,0.01
2013-12-9,27.9,24.9,12.0,23.9,20.6,9.7,93,83,76,30.66,30.56,9,1,10,0.00
2013-12-10,33.9,26.7,20.6,28.6,23.8,19.0,94,89,80,30.57,30.42,5,0,5,0.00
2013-12-11,28.9,23.4,18.6,27.9,22.1,16.9,96,95,93,30.42,30.24,4,0,4,0.00
2013-12-12,42.6,29.5,17.1,42.4,28.5,15.4,100,96,93,30.25,30.13,7,1,8,0.20
2013-12-13,50.9,42.2,34.7,48.0,41.2,33.8,98,96,88,30.45,30.24,5,0,6,0.13
2013-12-14,42.2,37.9,33.4,41.0,37.2,32.9,98,97,95,30.49,30.39,8,1,8,0.00
2013-12-15,47.0,41.2,35.4,45.9,40.4,34.9,98,97,94,30.49,30.43,5,0,5,0.11
2013-12-16,42.9,41.0,39.0,42.4,40.5,38.5,98,98,98,30.47,30.25,8,1,8,0.01
2013-12-17,39.0,36.5,34.9,38.5,36.0,34.3,98,98,98,30.26,30.19,7,1,7,0.00
2013-12-18,40.1,37.0,32.8,39.6,36.5,31.9,99,98,96,30.21,30.06,15,0,15,0.05
2013-12-19,35.0,32.5,29.4,33.3,31.5,28.7,98,96,93,30.33,30.14,7,1,8,0.01
2013-12-20,45.4,37.7,31.7,44.7,36.5,30.7,98,96,89,30.26,29.95,16,3,16,0.13
2013-12-21,51.7,46.9,45.1,48.4,45.6,43.8,100,95,86,30.26,29.99,10,1,11,0.09
2013-12-22,53.3,47.9,42.2,50.5,46.7,41.3,98,96,88,30.37,30.25,9,2,9,0.03
2013-12-23,50.4,45.1,33.7,50.0,44.3,32.7,100,97,94,30.55,30.34,15,2,15,0.26
2013-12-24,40.7,34.6,31.3,40.2,34.0,30.8,99,98,97,30.61,30.50,7,1,8,0.01
2013-12-25,36.1,34.2,32.1,35.8,33.7,31.6,99,98,98,30.50,30.41,5,0,5,0.01
2013-12-26,34.6,32.3,30.1,34.3,31.8,29.5,99,98,98,30.42,30.26,5,0,5,0.00
2013-12-27,36.6,33.4,30.3,36.2,33.1,29.8,100,99,98,30.41,30.23,6,1,6,0.00
2013-12-28,41.4,36.8,32.4,41.1,36.0,31.9,100,97,89,30.52,30.41,6,1,6,0.01
2013-12-29,38.6,36.5,33.7,37.1,35.5,32.5,98,96,94,30.48,30.30,7,0,7,0.00
2013-12-30,41.3,37.3,35.3,39.6,36.6,34.5,99,97,93,30.30,30.21,7,1,7,0.00
2013-12-31,51.6,41.8,35.5,44.3,39.9,35.0,100,93,74,30.35,30.25,5,0,5,0.01
2014-1-1,40.6,38.8,36.9,39.8,38.3,36.4,99,98,97,30.37,30.27,4,0,4,0.01
2014-1-2,44.5,38.6,34.4,43.7,38.2,33.9,100,99,97,30.28,30.08,6,1,6,0.00